Time,TemperatureF,DewpointF,PressureIn,WindDirection,WindDirectionDegrees,WindSpeedMPH,WindSpeedGustMPH,Humidity,HourlyPrecipIn,Conditions,Clouds,dailyrainin,SoftwareType,DateUTC
2013-08-10 00:00:00,69.2,65.5,30.05,East,84,2.0,2.0,88,0.00,,,0.00,Wunderground v.1.15,2013-08-10 04:00:00,
2013-08-10 00:05:00,69.0,65.3,30.05,East,84,2.0,3.0,88,0.00,,,0.00,Wunderground v.1.15,2013-08-10 04:05:00,
2013-08-10 00:10:00,68.9,65.5,30.05,East,84,2.0,3.0,89,0.00,,,0.00,Wunderground v.1.15,2013-08-10 04:10:00,
2013-08-10 00:15:00,68.8,65.4,30.05,East,84,2.0,3.0,89,0.00,,,0.00,Wunderground v.1.15,2013-08-10 04:15:00,
2013-08-10 00:20:00,68.7,65.3,30.05,East,84,3.0,4.0,89,0.00,,,0.00,Wunderground v.1.15,2013-08-10 04:20:00,
2013-08-10 00:25:00,68.8,65.4,30.05,East,84,4.0,4.0,89,0.00,,,0.00,Wunderground v.1.15,2013-08-10 04:25:00,
2013-08-10 00:35:00,68.6,65.2,30.05,West,278,4.0,4.0,89,0.00,,,0.00,Wunderground v.1.15,2013-08-10 04:35:00,
2013-08-10 00:40:00,68.4,65.4,30.06,WNW,284,4.0,4.0,90,0.00,,,0.00,Wunderground v.1.15,2013-08-10 04:40:00,
2013-08-10 00:45:00,68.3,65.3,30.06,NW,307,3.0,4.0,90,0.00,,,0.00,Wunderground v.1.15,2013-08-10 04:45:00,
2013-08-10 00:50:00,68.3,65.3,30.06,WNW,287,2.0,3.0,90,0.00,,,0.00,Wunderground v.1.15,2013-08-10 04:50:00,
2013-08-10 00:55:00,68.3,65.3,30.06,WNW,284,2.0,4.0,90,0.00,,,0.00,Wunderground v.1.15,2013-08-10 04:55:00,
2013-08-10 01:00:00,68.4,65.0,30.06,WNW,291,3.0,3.0,89,0.00,,,0.00,Wunderground v.1.15,2013-08-10 05:00:00,
2013-08-10 01:05:00,68.4,65.0,30.07,WNW,293,2.0,3.0,89,0.00,,,0.00,Wunderground v.1.15,2013-08-10 05:05:00,
2013-08-10 01:15:00,68.2,65.2,30.06,WNW,293,3.0,3.0,90,0.00,,,0.00,Wunderground v.1.15,2013-08-10 05:15:00,
2013-08-10 01:20:00,68.2,65.2,30.06,NNW,327,3.0,3.0,90,0.00,,,0.00,Wunderground v.1.15,2013-08-10 05:20:00,
2013-08-10 01:25:00,68.3,65.3,30.07,NNE,22,2.0,3.0,90,0.00,,,0.00,Wunderground v.1.15,2013-08-10 05:25:00,
2013-08-10 01:30:00,68.3,65.3,30.07,NNW,342,2.0,3.0,90,0.00,,,0.00,Wunderground v.1.15,2013-08-10 05:30:00,
2013-08-10 01:40:00,68.2,65.2,30.07,NNW,330,2.0,3.0,90,0.00,,,0.00,Wunderground v.1.15,2013-08-10 05:40:00,
2013-08-10 01:50:00,68.2,65.2,30.07,WNW,295,2.0,3.0,90,0.00,,,0.00,Wunderground v.1.15,2013-08-10 05:50:00,
2013-08-10 01:55:00,68.2,65.2,30.07,NW,308,2.0,3.0,90,0.00,,,0.00,Wunderground v.1.15,2013-08-10 05:55:00,
2013-08-10 02:00:00,68.2,65.2,30.07,NW,318,2.0,3.0,90,0.00,,,0.00,Wunderground v.1.15,2013-08-10 06:00:00,
2013-08-10 02:05:00,68.3,65.3,30.06,NW,311,2.0,3.0,90,0.00,,,0.00,Wunderground v.1.15,2013-08-10 06:05:00,
2013-08-10 02:10:00,68.3,65.3,30.06,WNW,297,2.0,3.0,90,0.00,,,0.00,Wunderground v.1.15,2013-08-10 06:10:00,
2013-08-10 02:20:00,68.1,65.1,30.06,WNW,298,3.0,3.0,90,0.00,,,0.00,Wunderground v.1.15,2013-08-10 06:20:00,
2013-08-10 02:25:00,67.9,64.9,30.06,WNW,296,2.0,4.0,90,0.00,,,0.00,Wunderground v.1.15,2013-08-10 06:25:00,
2013-08-10 02:30:00,67.9,65.2,30.06,WNW,299,2.0,3.0,91,0.00,,,0.00,Wunderground v.1.15,2013-08-10 06:30:00,
2013-08-10 02:35:00,67.8,65.1,30.07,WNW,284,3.0,3.0,91,0.00,,,0.00,Wunderground v.1.15,2013-08-10 06:35:00,
2013-08-10 02:45:00,67.6,64.9,30.07,NW,311,3.0,3.0,91,0.00,,,0.00,Wunderground v.1.15,2013-08-10 06:45:00,
2013-08-10 02:55:00,67.5,65.1,30.07,NW,321,2.0,3.0,92,0.00,,,0.00,Wunderground v.1.15,2013-08-10 06:55:00,
2013-08-10 03:00:00,67.6,65.2,30.07,NNW,329,2.0,2.0,92,0.00,,,0.00,Wunderground v.1.15,2013-08-10 07:00:00,
2013-08-10 03:10:00,67.6,65.2,30.07,NW,310,2.0,2.0,92,0.00,,,0.00,Wunderground v.1.15,2013-08-10 07:10:00,
2013-08-10 03:15:00,67.6,65.2,30.07,NW,309,2.0,2.0,92,0.00,,,0.00,Wunderground v.1.15,2013-08-10 07:15:00,
2013-08-10 03:20:00,67.7,65.3,30.06,NW,308,3.0,3.0,92,0.00,,,0.00,Wunderground v.1.15,2013-08-10 07:20:00,
2013-08-10 03:30:00,67.9,65.2,30.06,NE,40,3.0,3.0,91,0.00,,,0.00,Wunderground v.1.15,2013-08-10 07:30:00,
2013-08-10 03:35:00,67.9,65.2,30.07,NNE,29,3.0,5.0,91,0.00,,,0.00,Wunderground v.1.15,2013-08-10 07:35:00,
2013-08-10 03:45:00,68.0,65.3,30.07,NNW,335,3.0,5.0,91,0.00,,,0.00,Wunderground v.1.15,2013-08-10 07:45:00,
2013-08-10 03:50:00,68.0,65.3,30.07,NNW,330,4.0,5.0,91,0.00,,,0.00,Wunderground v.1.15,2013-08-10 07:50:00,
2013-08-10 03:55:00,68.0,65.3,30.07,NNW,328,4.0,5.0,91,0.00,,,0.00,Wunderground v.1.15,2013-08-10 07:55:00,
2013-08-10 04:05:00,67.8,65.1,30.06,NNE,13,3.0,5.0,91,0.00,,,0.00,Wunderground v.1.15,2013-08-10 08:05:00,
2013-08-10 04:10:00,67.7,65.0,30.06,ENE,77,3.0,3.0,91,0.00,,,0.00,Wunderground v.1.15,2013-08-10 08:10:00,
2013-08-10 04:15:00,67.5,64.8,30.06,NE,43,2.0,5.0,91,0.00,,,0.00,Wunderground v.1.15,2013-08-10 08:15:00,
2013-08-10 04:20:00,67.4,65.0,30.06,NNE,32,2.0,5.0,92,0.00,,,0.00,Wunderground v.1.15,2013-08-10 08:20:00,
2013-08-10 04:25:00,67.3,64.9,30.06,NNE,29,2.0,5.0,92,0.00,,,0.00,Wunderground v.1.15,2013-08-10 08:25:00,
2013-08-10 04:35:00,67.2,65.1,30.06,NNE,20,2.0,5.0,93,0.00,,,0.00,Wunderground v.1.15,2013-08-10 08:35:00,
2013-08-10 04:40:00,67.2,65.1,30.07,NNW,340,2.0,5.0,93,0.00,,,0.00,Wunderground v.1.15,2013-08-10 08:40:00,
2013-08-10 04:50:00,67.4,65.0,30.07,East,86,2.0,5.0,92,0.00,,,0.00,Wunderground v.1.15,2013-08-10 08:50:00,
2013-08-10 04:55:00,67.4,65.0,30.07,East,86,2.0,5.0,92,0.00,,,0.00,Wunderground v.1.15,2013-08-10 08:55:00,
2013-08-10 05:00:00,67.5,65.1,30.07,East,86,2.0,5.0,92,0.00,,,0.00,Wunderground v.1.15,2013-08-10 09:00:00,
2013-08-10 05:10:00,67.5,65.1,30.07,East,86,3.0,5.0,92,0.00,,,0.00,Wunderground v.1.15,2013-08-10 09:10:00,
2013-08-10 05:15:00,67.5,65.4,30.07,East,86,4.0,5.0,93,0.00,,,0.00,Wunderground v.1.15,2013-08-10 09:15:00,
2013-08-10 05:20:00,67.4,65.3,30.08,East,86,3.0,3.0,93,0.00,,,0.00,Wunderground v.1.15,2013-08-10 09:20:00,
2013-08-10 05:25:00,67.4,65.3,30.08,East,86,2.0,5.0,93,0.00,,,0.00,Wunderground v.1.15,2013-08-10 09:25:00,
2013-08-10 05:30:00,67.4,65.3,30.07,East,86,2.0,5.0,93,0.00,,,0.00,Wunderground v.1.15,2013-08-10 09:30:00,
2013-08-10 05:35:00,67.4,65.3,30.08,East,86,2.0,5.0,93,0.00,,,0.00,Wunderground v.1.15,2013-08-10 09:35:00,
2013-08-10 05:45:00,67.2,65.4,30.08,East,86,1.0,5.0,94,0.00,,,0.00,Wunderground v.1.15,2013-08-10 09:45:00,
2013-08-10 05:50:00,67.1,65.3,30.08,East,86,2.0,5.0,94,0.00,,,0.00,Wunderground v.1.15,2013-08-10 09:50:00,
2013-08-10 06:00:00,67.0,65.2,30.08,East,86,1.0,5.0,94,0.00,,,0.00,Wunderground v.1.15,2013-08-10 10:00:00,
2013-08-10 06:05:00,66.9,65.1,30.08,East,86,1.0,5.0,94,0.00,,,0.00,Wunderground v.1.15,2013-08-10 10:05:00,
2013-08-10 06:10:00,66.8,65.0,30.08,East,86,1.0,5.0,94,0.00,,,0.00,Wunderground v.1.15,2013-08-10 10:10:00,
2013-08-10 06:20:00,66.6,64.8,30.08,East,86,1.0,5.0,94,0.00,,,0.00,Wunderground v.1.15,2013-08-10 10:20:00,
2013-08-10 06:25:00,66.4,64.9,30.08,East,86,1.0,5.0,95,0.00,,,0.00,Wunderground v.1.15,2013-08-10 10:25:00,
2013-08-10 06:30:00,66.4,64.9,30.08,East,86,1.0,5.0,95,0.00,,,0.00,Wunderground v.1.15,2013-08-10 10:30:00,
2013-08-10 06:35:00,66.3,64.8,30.08,East,86,2.0,5.0,95,0.00,,,0.00,Wunderground v.1.15,2013-08-10 10:35:00,
2013-08-10 06:40:00,66.2,64.7,30.08,East,86,2.0,5.0,95,0.00,,,0.00,Wunderground v.1.15,2013-08-10 10:40:00,
2013-08-10 06:50:00,66.1,64.6,30.08,East,86,2.0,5.0,95,0.00,,,0.00,Wunderground v.1.15,2013-08-10 10:50:00,
2013-08-10 06:55:00,65.9,64.4,30.09,East,86,2.0,5.0,95,0.00,,,0.00,Wunderground v.1.15,2013-08-10 10:55:00,
2013-08-10 07:05:00,65.7,64.5,30.09,East,86,2.0,2.0,96,0.00,,,0.00,Wunderground v.1.15,2013-08-10 11:05:00,
2013-08-10 07:10:00,65.8,64.6,30.09,East,86,1.0,1.0,96,0.00,,,0.00,Wunderground v.1.15,2013-08-10 11:10:00,
2013-08-10 07:15:00,65.8,64.6,30.09,East,86,1.0,2.0,96,0.00,,,0.00,Wunderground v.1.15,2013-08-10 11:15:00,
2013-08-10 07:25:00,66.1,64.9,30.09,East,86,2.0,2.0,96,0.00,,,0.00,Wunderground v.1.15,2013-08-10 11:25:00,
2013-08-10 07:30:00,66.2,65.0,30.09,East,86,1.0,1.0,96,0.00,,,0.00,Wunderground v.1.15,2013-08-10 11:30:00,
2013-08-10 07:35:00,66.5,65.3,30.09,East,86,1.0,3.0,96,0.00,,,0.00,Wunderground v.1.15,2013-08-10 11:35:00,
2013-08-10 07:40:00,66.7,65.5,30.10,East,86,1.0,3.0,96,0.00,,,0.00,Wunderground v.1.15,2013-08-10 11:40:00,
2013-08-10 07:45:00,66.9,65.4,30.09,East,86,2.0,3.0,95,0.00,,,0.00,Wunderground v.1.15,2013-08-10 11:45:00,
2013-08-10 07:55:00,67.7,66.2,30.09,East,86,1.0,3.0,95,0.00,,,0.00,Wunderground v.1.15,2013-08-10 11:55:00,
2013-08-10 08:05:00,68.8,66.7,30.09,East,86,0.0,3.0,93,0.00,,,0.00,Wunderground v.1.15,2013-08-10 12:05:00,
2013-08-10 08:10:00,68.7,66.3,30.09,East,86,1.0,1.0,92,0.00,,,0.00,Wunderground v.1.15,2013-08-10 12:10:00,
2013-08-10 08:15:00,68.8,66.4,30.09,East,86,1.0,3.0,92,0.00,,,0.00,Wunderground v.1.15,2013-08-10 12:15:00,
2013-08-10 08:20:00,69.1,66.7,30.09,East,86,0.0,3.0,92,0.00,,,0.00,Wunderground v.1.15,2013-08-10 12:20:00,
2013-08-10 08:25:00,69.5,67.1,30.09,East,86,0.0,3.0,92,0.00,,,0.00,Wunderground v.1.15,2013-08-10 12:25:00,
2013-08-10 08:35:00,70.1,67.3,30.10,East,86,1.0,3.0,91,0.00,,,0.00,Wunderground v.1.15,2013-08-10 12:35:00,
2013-08-10 08:40:00,69.6,66.9,30.10,East,86,2.0,3.0,91,0.00,,,0.00,Wunderground v.1.15,2013-08-10 12:40:00,
2013-08-10 08:45:00,69.4,67.0,30.09,East,86,3.0,4.0,92,0.00,,,0.00,Wunderground v.1.15,2013-08-10 12:45:00,
2013-08-10 08:50:00,69.4,66.7,30.09,East,86,3.0,4.0,91,0.00,,,0.00,Wunderground v.1.15,2013-08-10 12:50:00,
2013-08-10 09:00:00,69.5,67.1,30.10,East,91,4.0,4.0,92,0.00,,,0.00,Wunderground v.1.15,2013-08-10 13:00:00,
2013-08-10 09:10:00,69.9,67.2,30.10,East,98,3.0,3.0,91,0.00,,,0.00,Wunderground v.1.15,2013-08-10 13:10:00,
2013-08-10 09:15:00,70.3,67.5,30.10,East,98,3.0,3.0,91,0.00,,,0.00,Wunderground v.1.15,2013-08-10 13:15:00,
2013-08-10 09:20:00,70.4,67.3,30.10,East,98,3.0,3.0,90,0.00,,,0.00,Wunderground v.1.15,2013-08-10 13:20:00,
2013-08-10 09:25:00,70.8,67.7,30.09,East,98,3.0,3.0,90,0.00,,,0.00,Wunderground v.1.15,2013-08-10 13:25:00,
2013-08-10 09:30:00,71.1,67.4,30.10,East,98,2.0,4.0,88,0.00,,,0.00,Wunderground v.1.15,2013-08-10 13:30:00,
2013-08-10 09:35:00,71.1,67.7,30.10,East,98,3.0,4.0,89,0.00,,,0.00,Wunderground v.1.15,2013-08-10 13:35:00,
2013-08-10 09:40:00,71.2,67.5,30.10,ESE,113,4.0,4.0,88,0.00,,,0.00,Wunderground v.1.15,2013-08-10 13:40:00,
2013-08-10 09:45:00,71.2,67.5,30.10,East,92,4.0,4.0,88,0.00,,,0.00,Wunderground v.1.15,2013-08-10 13:45:00,
2013-08-10 09:50:00,71.6,68.2,30.10,East,86,4.0,4.0,89,0.00,,,0.00,Wunderground v.1.15,2013-08-10 13:50:00,
2013-08-10 09:55:00,71.8,68.4,30.10,East,100,3.0,4.0,89,0.00,,,0.00,Wunderground v.1.15,2013-08-10 13:55:00,
2013-08-10 10:05:00,72.1,68.3,30.10,SE,131,3.0,5.0,88,0.00,,,0.00,Wunderground v.1.15,2013-08-10 14:05:00,
2013-08-10 10:15:00,73.4,68.3,30.10,East,96,2.0,2.0,84,0.00,,,0.00,Wunderground v.1.15,2013-08-10 14:15:00,
2013-08-10 10:20:00,73.0,67.9,30.10,East,96,3.0,4.0,84,0.00,,,0.00,Wunderground v.1.15,2013-08-10 14:20:00,
2013-08-10 10:25:00,73.4,68.6,30.10,East,96,3.0,5.0,85,0.00,,,0.00,Wunderground v.1.15,2013-08-10 14:25:00,
2013-08-10 10:30:00,73.4,68.6,30.10,East,96,2.0,2.0,85,0.00,,,0.00,Wunderground v.1.15,2013-08-10 14:30:00,
2013-08-10 10:35:00,74.4,69.6,30.11,North,6,2.0,6.0,85,0.00,,,0.00,Wunderground v.1.15,2013-08-10 14:35:00,
2013-08-10 10:40:00,75.1,69.2,30.10,East,96,1.0,6.0,82,0.00,,,0.00,Wunderground v.1.15,2013-08-10 14:40:00,
2013-08-10 10:50:00,75.3,68.7,30.11,East,96,2.0,2.0,80,0.00,,,0.00,Wunderground v.1.15,2013-08-10 14:50:00,
2013-08-10 10:55:00,75.8,68.4,30.11,East,96,1.0,6.0,78,0.00,,,0.00,Wunderground v.1.15,2013-08-10 14:55:00,
2013-08-10 11:05:00,75.9,68.5,30.11,East,96,1.0,6.0,78,0.00,,,0.00,Wunderground v.1.15,2013-08-10 15:05:00,
2013-08-10 11:10:00,77.3,69.5,30.11,East,96,1.0,6.0,77,0.00,,,0.00,Wunderground v.1.15,2013-08-10 15:10:00,
2013-08-10 11:15:00,78.5,70.7,30.11,East,96,1.0,6.0,77,0.00,,,0.00,Wunderground v.1.15,2013-08-10 15:15:00,
2013-08-10 11:25:00,77.4,68.9,30.11,East,96,1.0,6.0,75,0.00,,,0.00,Wunderground v.1.15,2013-08-10 15:25:00,
2013-08-10 11:30:00,77.7,69.1,30.11,East,96,2.0,2.0,75,0.00,,,0.00,Wunderground v.1.15,2013-08-10 15:30:00,
2013-08-10 11:35:00,78.8,70.2,30.11,East,96,1.0,6.0,75,0.00,,,0.00,Wunderground v.1.15,2013-08-10 15:35:00,
2013-08-10 11:40:00,80.1,69.8,30.11,East,87,1.0,6.0,71,0.00,,,0.00,Wunderground v.1.15,2013-08-10 15:40:00,
2013-08-10 11:45:00,79.1,68.9,30.11,East,85,2.0,6.0,71,0.00,,,0.00,Wunderground v.1.15,2013-08-10 15:45:00,
2013-08-10 11:55:00,76.4,69.0,30.12,NE,54,4.0,6.0,78,0.00,,,0.00,Wunderground v.1.15,2013-08-10 15:55:00,
2013-08-10 12:01:00,76.6,68.1,30.12,East,82,2.0,2.0,75,0.00,,,0.00,Wunderground v.1.15,2013-08-10 16:01:00,
2013-08-10 12:10:00,78.3,68.1,30.12,NE,52,2.0,2.0,71,0.00,,,0.00,Wunderground v.1.15,2013-08-10 16:10:00,
2013-08-10 12:15:00,78.1,68.7,30.12,East,84,3.0,3.0,73,0.00,,,0.00,Wunderground v.1.15,2013-08-10 16:15:00,
2013-08-10 12:20:00,79.0,68.4,30.12,East,82,2.0,3.0,70,0.00,,,0.00,Wunderground v.1.15,2013-08-10 16:20:00,
2013-08-10 12:30:00,78.1,68.3,30.12,East,85,3.0,4.0,72,0.00,,,0.00,Wunderground v.1.15,2013-08-10 16:30:00,
2013-08-10 12:35:00,77.7,68.4,30.12,East,86,3.0,7.0,73,0.00,,,0.00,Wunderground v.1.15,2013-08-10 16:35:00,
2013-08-10 12:40:00,77.0,68.1,30.12,East,89,5.0,5.0,74,0.00,,,0.00,Wunderground v.1.15,2013-08-10 16:40:00,
2013-08-10 12:45:00,76.8,68.3,30.12,East,91,6.0,7.0,75,0.00,,,0.00,Wunderground v.1.15,2013-08-10 16:45:00,
2013-08-10 12:50:00,76.5,68.4,30.12,NE,43,6.0,6.0,76,0.00,,,0.00,Wunderground v.1.15,2013-08-10 16:50:00,
2013-08-10 13:00:00,78.5,67.9,30.11,NE,53,1.0,3.0,70,0.00,,,0.00,Wunderground v.1.15,2013-08-10 17:00:00,
2013-08-10 13:10:00,80.4,68.9,30.11,ENE,68,2.0,7.0,68,0.00,,,0.00,Wunderground v.1.15,2013-08-10 17:10:00,
2013-08-10 13:15:00,78.6,67.6,30.11,East,93,4.0,7.0,69,0.00,,,0.00,Wunderground v.1.15,2013-08-10 17:15:00,
2013-08-10 13:20:00,77.8,68.4,30.11,East,91,6.0,6.0,73,0.00,,,0.00,Wunderground v.1.15,2013-08-10 17:20:00,
2013-08-10 13:25:00,78.1,68.7,30.11,East,85,5.0,7.0,73,0.00,,,0.00,Wunderground v.1.15,2013-08-10 17:25:00,
2013-08-10 13:30:00,78.1,68.7,30.11,ESE,108,6.0,9.0,73,0.00,,,0.00,Wunderground v.1.15,2013-08-10 17:30:00,
2013-08-10 13:40:00,77.9,66.9,30.11,ESE,108,7.0,7.0,69,0.00,,,0.00,Wunderground v.1.15,2013-08-10 17:40:00,
2013-08-10 13:45:00,77.9,66.9,30.11,East,91,6.0,7.0,69,0.00,,,0.00,Wunderground v.1.15,2013-08-10 17:45:00,
2013-08-10 13:50:00,78.2,66.3,30.10,East,88,5.0,5.0,67,0.00,,,0.00,Wunderground v.1.15,2013-08-10 17:50:00,
2013-08-10 13:55:00,78.7,66.8,30.11,East,80,4.0,7.0,67,0.00,,,0.00,Wunderground v.1.15,2013-08-10 17:55:00,
2013-08-10 14:01:00,79.2,67.3,30.10,East,83,4.0,10.0,67,0.00,,,0.00,Wunderground v.1.15,2013-08-10 18:01:00,
2013-08-10 14:10:00,77.6,67.4,30.10,East,91,8.0,8.0,71,0.00,,,0.00,Wunderground v.1.15,2013-08-10 18:10:00,
2013-08-10 14:15:00,77.7,65.0,30.11,East,86,7.0,8.0,65,0.00,,,0.00,Wunderground v.1.15,2013-08-10 18:15:00,
2013-08-10 14:20:00,77.7,65.0,30.10,East,80,6.0,6.0,65,0.00,,,0.00,Wunderground v.1.15,2013-08-10 18:20:00,
2013-08-10 14:25:00,78.1,64.5,30.10,East,85,5.0,6.0,63,0.00,,,0.00,Wunderground v.1.15,2013-08-10 18:25:00,
2013-08-10 14:30:00,79.1,65.0,30.10,East,85,3.0,3.0,62,0.00,,,0.00,Wunderground v.1.15,2013-08-10 18:30:00,
2013-08-10 14:35:00,80.1,65.4,30.10,East,85,2.0,3.0,61,0.00,,,0.00,Wunderground v.1.15,2013-08-10 18:35:00,
2013-08-10 14:45:00,79.5,66.3,30.10,East,86,3.0,5.0,64,0.00,,,0.00,Wunderground v.1.15,2013-08-10 18:45:00,
2013-08-10 14:50:00,78.8,64.7,30.10,East,86,3.0,3.0,62,0.00,,,0.00,Wunderground v.1.15,2013-08-10 18:50:00,
2013-08-10 15:00:00,79.2,66.0,30.10,East,96,3.0,3.0,64,0.00,,,0.00,Wunderground v.1.15,2013-08-10 19:00:00,
2013-08-10 15:05:00,79.7,66.4,30.10,East,87,3.0,6.0,64,0.00,,,0.00,Wunderground v.1.15,2013-08-10 19:05:00,
2013-08-10 15:10:00,79.0,65.3,30.10,East,86,5.0,13.0,63,0.00,,,0.00,Wunderground v.1.15,2013-08-10 19:10:00,
2013-08-10 15:20:00,78.1,64.9,30.10,East,82,6.0,13.0,64,0.00,,,0.00,Wunderground v.1.15,2013-08-10 19:20:00,
2013-08-10 15:25:00,78.0,64.4,30.10,East,86,6.0,13.0,63,0.00,,,0.00,Wunderground v.1.15,2013-08-10 19:25:00,
2013-08-10 15:30:00,78.5,66.2,30.10,East,88,5.0,5.0,66,0.00,,,0.00,Wunderground v.1.15,2013-08-10 19:30:00,
2013-08-10 15:35:00,79.2,66.0,30.10,NE,46,4.0,13.0,64,0.00,,,0.00,Wunderground v.1.15,2013-08-10 19:35:00,
2013-08-10 15:40:00,79.9,65.7,30.10,East,85,2.0,13.0,62,0.00,,,0.00,Wunderground v.1.15,2013-08-10 19:40:00,
2013-08-10 15:50:00,78.4,65.2,30.10,NE,56,5.0,5.0,64,0.00,,,0.00,Wunderground v.1.15,2013-08-10 19:50:00,
2013-08-10 16:00:00,78.2,68.0,30.09,East,96,8.0,9.0,71,0.00,,,0.00,Wunderground v.1.15,2013-08-10 20:00:00,
2013-08-10 16:10:00,77.5,67.8,30.09,East,85,9.0,9.0,72,0.00,,,0.00,Wunderground v.1.15,2013-08-10 20:10:00,
2013-08-10 16:15:00,77.4,66.8,30.09,East,83,9.0,9.0,70,0.00,,,0.00,Wunderground v.1.15,2013-08-10 20:15:00,
2013-08-10 16:20:00,77.7,67.5,30.09,East,89,8.0,9.0,71,0.00,,,0.00,Wunderground v.1.15,2013-08-10 20:20:00,
2013-08-10 16:30:00,77.4,65.6,30.09,East,86,7.0,7.0,67,0.00,,,0.00,Wunderground v.1.15,2013-08-10 20:30:00,
2013-08-10 16:35:00,77.2,67.1,30.09,ENE,76,6.0,9.0,71,0.00,,,0.00,Wunderground v.1.15,2013-08-10 20:35:00,
2013-08-10 16:40:00,77.4,67.3,30.09,East,88,6.0,9.0,71,0.00,,,0.00,Wunderground v.1.15,2013-08-10 20:40:00,
2013-08-10 16:45:00,77.4,67.3,30.09,East,91,6.0,9.0,71,0.00,,,0.00,Wunderground v.1.15,2013-08-10 20:45:00,
2013-08-10 16:55:00,77.4,66.4,30.09,East,89,5.0,9.0,69,0.00,,,0.00,Wunderground v.1.15,2013-08-10 20:55:00,
2013-08-10 17:05:00,76.7,66.6,30.09,East,91,6.0,9.0,71,0.00,,,0.00,Wunderground v.1.15,2013-08-10 21:05:00,
2013-08-10 17:10:00,76.9,66.8,30.09,East,95,6.0,6.0,71,0.00,,,0.00,Wunderground v.1.15,2013-08-10 21:10:00,
2013-08-10 17:15:00,76.8,66.3,30.09,East,91,6.0,7.0,70,0.00,,,0.00,Wunderground v.1.15,2013-08-10 21:15:00,
2013-08-10 17:20:00,76.8,66.3,30.09,East,89,6.0,6.0,70,0.00,,,0.00,Wunderground v.1.15,2013-08-10 21:20:00,
2013-08-10 17:25:00,76.6,66.5,30.09,East,91,6.0,8.0,71,0.00,,,0.00,Wunderground v.1.15,2013-08-10 21:25:00,
2013-08-10 17:35:00,76.2,66.1,30.09,East,90,5.0,9.0,71,0.00,,,0.00,Wunderground v.1.15,2013-08-10 21:35:00,
2013-08-10 17:40:00,76.3,65.8,30.09,East,84,5.0,10.0,70,0.00,,,0.00,Wunderground v.1.15,2013-08-10 21:40:00,
2013-08-10 17:45:00,76.3,65.8,30.09,East,91,8.0,10.0,70,0.00,,,0.00,Wunderground v.1.15,2013-08-10 21:45:00,
2013-08-10 17:50:00,76.5,65.1,30.08,East,91,9.0,9.0,68,0.00,,,0.00,Wunderground v.1.15,2013-08-10 21:50:00,
2013-08-10 18:00:00,76.8,65.0,30.09,East,97,9.0,9.0,67,0.00,,,0.00,Wunderground v.1.15,2013-08-10 22:00:00,
2013-08-10 18:10:00,76.6,65.2,30.09,East,86,8.0,8.0,68,0.00,,,0.00,Wunderground v.1.15,2013-08-10 22:10:00,
2013-08-10 18:15:00,76.2,65.7,30.08,East,96,8.0,8.0,70,0.00,,,0.00,Wunderground v.1.15,2013-08-10 22:15:00,
2013-08-10 18:20:00,76.1,65.2,30.09,ENE,70,8.0,8.0,69,0.00,,,0.00,Wunderground v.1.15,2013-08-10 22:20:00,
2013-08-10 18:25:00,75.9,65.0,30.09,East,98,8.0,8.0,69,0.00,,,0.00,Wunderground v.1.15,2013-08-10 22:25:00,
2013-08-10 18:30:00,75.7,64.8,30.09,East,95,8.0,8.0,69,0.00,,,0.00,Wunderground v.1.15,2013-08-10 22:30:00,
2013-08-10 18:35:00,75.8,64.9,30.09,East,98,7.0,10.0,69,0.00,,,0.00,Wunderground v.1.15,2013-08-10 22:35:00,
2013-08-10 18:40:00,76.1,65.6,30.08,East,101,7.0,10.0,70,0.00,,,0.00,Wunderground v.1.15,2013-08-10 22:40:00,
2013-08-10 18:45:00,76.2,65.3,30.08,East,83,7.0,10.0,69,0.00,,,0.00,Wunderground v.1.15,2013-08-10 22:45:00,
2013-08-10 18:55:00,76.2,65.3,30.08,East,87,7.0,10.0,69,0.00,,,0.00,Wunderground v.1.15,2013-08-10 22:55:00,
2013-08-10 19:00:00,76.1,64.3,30.08,East,94,8.0,8.0,67,0.00,,,0.00,Wunderground v.1.15,2013-08-10 23:00:00,
2013-08-10 19:05:00,76.1,64.3,30.08,ESE,102,7.0,10.0,67,0.00,,,0.00,Wunderground v.1.15,2013-08-10 23:05:00,
2013-08-10 19:10:00,75.9,63.3,30.09,East,84,6.0,10.0,65,0.00,,,0.00,Wunderground v.1.15,2013-08-10 23:10:00,
2013-08-10 19:20:00,75.4,64.1,30.09,East,89,6.0,10.0,68,0.00,,,0.00,Wunderground v.1.15,2013-08-10 23:20:00,
2013-08-10 19:25:00,74.9,64.0,30.08,East,89,6.0,10.0,69,0.00,,,0.00,Wunderground v.1.15,2013-08-10 23:25:00,
2013-08-10 19:30:00,74.3,63.5,30.08,East,96,5.0,10.0,69,0.00,,,0.00,Wunderground v.1.15,2013-08-10 23:30:00,
2013-08-10 19:35:00,74.0,63.2,30.08,East,89,5.0,10.0,69,0.00,,,0.00,Wunderground v.1.15,2013-08-10 23:35:00,
2013-08-10 19:40:00,73.6,63.6,30.09,East,91,5.0,10.0,71,0.00,,,0.00,Wunderground v.1.15,2013-08-10 23:40:00,
2013-08-10 19:50:00,73.2,63.6,30.08,East,91,6.0,10.0,72,0.00,,,0.00,Wunderground v.1.15,2013-08-10 23:50:00,
2013-08-10 20:00:00,72.8,63.6,30.09,East,89,5.0,5.0,73,0.00,,,0.00,Wunderground v.1.15,2013-08-11 00:00:00,
2013-08-10 20:10:00,72.6,63.8,30.09,East,88,3.0,3.0,74,0.00,,,0.00,Wunderground v.1.15,2013-08-11 00:10:00,
2013-08-10 20:15:00,72.5,64.5,30.09,East,87,3.0,4.0,76,0.00,,,0.00,Wunderground v.1.15,2013-08-11 00:15:00,
2013-08-10 20:20:00,72.4,64.4,30.09,East,87,3.0,10.0,76,0.00,,,0.00,Wunderground v.1.15,2013-08-11 00:20:00,
2013-08-10 20:30:00,72.3,64.3,30.09,East,87,3.0,10.0,76,0.00,,,0.00,Wunderground v.1.15,2013-08-11 00:30:00,
2013-08-10 20:35:00,72.0,64.8,30.09,East,87,3.0,10.0,78,0.00,,,0.00,Wunderground v.1.15,2013-08-11 00:35:00,
2013-08-10 20:40:00,71.7,64.8,30.09,East,88,3.0,3.0,79,0.00,,,0.00,Wunderground v.1.15,2013-08-11 00:40:00,
2013-08-10 20:50:00,71.2,64.4,30.09,East,88,3.0,3.0,79,0.00,,,0.00,Wunderground v.1.15,2013-08-11 00:50:00,
2013-08-10 21:00:00,71.1,63.9,30.09,East,87,3.0,3.0,78,0.00,,,0.00,Wunderground v.1.15,2013-08-11 01:00:00,
2013-08-10 21:05:00,71.2,63.6,30.09,East,87,3.0,10.0,77,0.00,,,0.00,Wunderground v.1.15,2013-08-11 01:05:00,
2013-08-10 21:10:00,71.3,63.7,30.10,East,87,3.0,10.0,77,0.00,,,0.00,Wunderground v.1.15,2013-08-11 01:10:00,
2013-08-10 21:15:00,71.1,63.9,30.10,East,87,3.0,10.0,78,0.00,,,0.00,Wunderground v.1.15,2013-08-11 01:15:00,
2013-08-10 21:20:00,70.6,64.1,30.10,East,87,3.0,10.0,80,0.00,,,0.00,Wunderground v.1.15,2013-08-11 01:20:00,
2013-08-10 21:25:00,70.3,63.8,30.10,East,87,3.0,10.0,80,0.00,,,0.00,Wunderground v.1.15,2013-08-11 01:25:00,
2013-08-10 21:35:00,70.0,62.8,30.10,East,87,2.0,10.0,78,0.00,,,0.00,Wunderground v.1.15,2013-08-11 01:35:00,
2013-08-10 21:40:00,69.9,62.7,30.11,East,88,2.0,10.0,78,0.00,,,0.00,Wunderground v.1.15,2013-08-11 01:40:00,
2013-08-10 21:45:00,69.8,62.6,30.11,East,87,2.0,10.0,78,0.00,,,0.00,Wunderground v.1.15,2013-08-11 01:45:00,
2013-08-10 21:55:00,69.4,62.6,30.11,East,88,1.0,10.0,79,0.00,,,0.00,Wunderground v.1.15,2013-08-11 01:55:00,
2013-08-10 22:00:00,69.4,62.6,30.11,East,87,1.0,1.0,79,0.00,,,0.00,Wunderground v.1.15,2013-08-11 02:00:00,
2013-08-10 22:10:00,69.1,62.7,30.12,East,88,1.0,1.0,80,0.00,,,0.00,Wunderground v.1.15,2013-08-11 02:10:00,
2013-08-10 22:15:00,68.8,62.7,30.12,East,88,1.0,1.0,81,0.00,,,0.00,Wunderground v.1.15,2013-08-11 02:15:00,
2013-08-10 22:20:00,68.4,62.3,30.12,East,87,1.0,1.0,81,0.00,,,0.00,Wunderground v.1.15,2013-08-11 02:20:00,
2013-08-10 22:25:00,68.4,62.3,30.12,East,87,1.0,1.0,81,0.00,,,0.00,Wunderground v.1.15,2013-08-11 02:25:00,
2013-08-10 22:30:00,68.5,62.8,30.12,East,88,1.0,2.0,82,0.00,,,0.00,Wunderground v.1.15,2013-08-11 02:30:00,
2013-08-10 22:40:00,68.0,63.0,30.12,East,87,2.0,4.0,84,0.00,,,0.00,Wunderground v.1.15,2013-08-11 02:40:00,
2013-08-10 22:45:00,67.6,62.6,30.13,East,87,3.0,4.0,84,0.00,,,0.00,Wunderground v.1.15,2013-08-11 02:45:00,
2013-08-10 22:55:00,67.2,62.2,30.13,East,88,2.0,4.0,84,0.00,,,0.00,Wunderground v.1.15,2013-08-11 02:55:00,
2013-08-10 23:05:00,67.1,62.1,30.13,East,87,2.0,4.0,84,0.00,,,0.00,Wunderground v.1.15,2013-08-11 03:05:00,
2013-08-10 23:10:00,67.0,62.0,30.13,East,87,1.0,4.0,84,0.00,,,0.00,Wunderground v.1.15,2013-08-11 03:10:00,
2013-08-10 23:20:00,66.7,61.7,30.13,East,87,2.0,4.0,84,0.00,,,0.00,Wunderground v.1.15,2013-08-11 03:20:00,
2013-08-10 23:26:00,66.5,61.5,30.13,East,88,2.0,4.0,84,0.00,,,0.00,Wunderground v.1.15,2013-08-11 03:26:00,
2013-08-10 23:35:00,66.2,61.2,30.13,East,87,2.0,4.0,84,0.00,,,0.00,Wunderground v.1.15,2013-08-11 03:35:00,
2013-08-10 23:40:00,66.1,61.1,30.13,East,87,2.0,2.0,84,0.00,,,0.00,Wunderground v.1.15,2013-08-11 03:40:00,
2013-08-10 23:50:00,65.8,61.2,30.13,East,88,2.0,2.0,85,0.00,,,0.00,Wunderground v.1.15,2013-08-11 03:50:00,